Concordia, KS

11:34 AM CDT on May 20, 2018 (GMT -0500)
Blosser Municipal

Weather History for KCNK - November, 2011

Change the Weather History Date:

Tuesday, November 22, 2011

  Actual Average Record
Temperature  
Mean Temperature 40 °F 38 °F  
Max Temperature 48 °F 48 °F 68 °F (1974)
Min Temperature 32 °F 28 °F -4 °F (1929)
Degree Days  
Heating Degree Days 25 27  
Month to date heating degree days 467  
Since 1 July heating degree days 858  
Cooling Degree Days 0 0  
Month to date cooling degree days 0  
Year to date cooling degree days 1348  
Moisture  
Dew Point 33 °F    
Average Humidity 86    
Maximum Humidity 100    
Minimum Humidity 56    
Precipitation  
Precipitation 0.19 in 0.03 in 0.53 in (1999)
Month to date precipitation 0.85  
Year to date precipitation 26.78  
Snow  
Snow 0.00 in 0.10 in 3.30 in (1991)
Month to date snowfall 1.5  
Year to date snowfall 15.4  
Since 1 July snowfall 1.7  
Snow Depth -    
Sea Level Pressure  
Sea Level Pressure 30.08 in    
Wind  
Wind Speed 3 mph (NW)    
Max Wind Speed 9 mph    
Max Gust Speed -    
Visibility 5 miles    
Events Fog , Rain    
T = Trace of Precipitation, MM = Missing Value Source: NWS Daily Summary

Daily Weather History Graph

Daily Weather History Graph

Search for Another Location

Airport or City:

Astronomy

Nov. 22, 2011 Rise Set
Actual Time 7:22 AM CST 5:10 PM CST
Civil Twilight 6:53 AM CST 5:40 PM CST
Nautical Twilight 6:20 AM CST 6:12 PM CST
Astronomical Twilight 5:48 AM CST 6:44 PM CST
Moon 4:14 AM CST (11/22) 3:10 PM CST (11/22)
Length of Visible Light 10h 46m
Length of Day
9h 48m
Waning Crescent, 9% of the Moon is Illuminated
Nov 22
Waning Crescent
Nov 25
New
Dec 2
First Quarter
Dec 10
Full
Dec 17
Last Quarter

Hourly Weather History & Observations

Time (CST) Temp. Windchill Dew Point Humidity Pressure Visibility Wind Dir Wind Speed Gust Speed Precip Events Conditions
12:28 AM 35.6 °F 32.8 °F 33.8 °F 93% 30.08 in 6.0 mi NNE 3.5 mph - 0.00 in Rain Light Rain
12:55 AM 35.6 °F - 33.8 °F 93% 30.08 in 4.0 mi Calm Calm - N/A Rain Light Rain
1:55 AM 35.1 °F - 34.0 °F 96% 30.08 in 2.5 mi Calm Calm - 0.07 in Rain Rain
2:18 AM 35.6 °F 30.7 °F 33.8 °F 93% 30.05 in 2.5 mi NW 5.8 mph - 0.06 in Rain Light Rain
2:27 AM 35.6 °F - 33.8 °F 93% 30.04 in 3.0 mi Calm Calm - N/A Rain Light Rain
2:36 AM 35.6 °F 32.8 °F 33.8 °F 93% 30.04 in 2.5 mi North 3.5 mph - 0.07 in Rain Light Rain
2:55 AM 35.1 °F 30.1 °F 34.0 °F 96% 30.08 in 2.5 mi NNW 5.8 mph - 0.08 in Rain Light Rain
3:42 AM 35.6 °F 30.7 °F 33.8 °F 93% 30.05 in 3.0 mi NNW 5.8 mph - 0.03 in Rain Light Rain
3:55 AM 35.1 °F 30.1 °F 34.0 °F 96% 30.08 in 2.5 mi NNW 5.8 mph - 0.04 in Rain Light Rain
4:05 AM 35.6 °F 30.7 °F 33.8 °F 93% 30.05 in 3.0 mi NNW 5.8 mph - N/A Rain Light Rain
4:55 AM 34.0 °F 31.0 °F 34.0 °F 100% 30.07 in 3.0 mi North 3.5 mph - 0.00 in   Overcast
5:27 AM 35.6 °F 31.7 °F 33.8 °F 93% 30.04 in 3.0 mi NNW 4.6 mph - N/A   Overcast
5:55 AM 35.1 °F 30.1 °F 34.0 °F 96% 30.09 in 3.0 mi WNW 5.8 mph - N/A   Overcast
6:15 AM 35.6 °F 30.7 °F 33.8 °F 93% 30.06 in 3.0 mi NW 5.8 mph - N/A   Overcast
6:55 AM 34.0 °F 26.6 °F 33.1 °F 96% 30.09 in 4.0 mi NNW 9.2 mph - N/A   Overcast
7:40 AM 32.0 °F 26.4 °F 32.0 °F 100% 30.07 in 1.8 mi NW 5.8 mph - N/A   Overcast
7:55 AM 32.0 °F 27.5 °F 32.0 °F 100% 30.09 in 1.5 mi NW 4.6 mph - N/A   Overcast
8:04 AM 32.0 °F 26.4 °F 32.0 °F 100% 30.07 in 1.8 mi NW 5.8 mph - N/A   Overcast
8:10 AM 32.0 °F 26.4 °F 30.2 °F 93% 30.07 in 1.2 mi NNW 5.8 mph - N/A   Overcast
8:23 AM 32.0 °F 27.5 °F 30.2 °F 93% 30.08 in 0.2 mi NW 4.6 mph - N/A Fog Fog
8:55 AM 32.0 °F 26.4 °F 32.0 °F 100% 30.07 in 0.8 mi North 5.8 mph - N/A   Overcast
9:21 AM 33.8 °F 28.6 °F 32.0 °F 93% 30.07 in 1.5 mi NNW 5.8 mph - N/A   Overcast
9:25 AM 33.8 °F 30.8 °F 32.0 °F 93% 30.07 in 2.0 mi North 3.5 mph - N/A   Overcast
9:55 AM 34.0 °F - 32.0 °F 92% 30.12 in 3.0 mi Calm Calm - N/A   Overcast
10:32 AM 33.8 °F - 30.2 °F 87% 30.08 in 5.0 mi Calm Calm - N/A   Mostly Cloudy
10:48 AM 35.6 °F - 32.0 °F 87% 30.07 in 6.0 mi Calm Calm - N/A   Scattered Clouds
10:55 AM 36.0 °F - 33.1 °F 89% 30.11 in 6.0 mi Calm Calm - N/A   Partly Cloudy
11:18 AM 37.4 °F 34.9 °F 33.8 °F 87% 30.07 in 7.0 mi NW 3.5 mph - N/A   Mostly Cloudy
11:41 AM 39.2 °F - 33.8 °F 81% 30.06 in 7.0 mi Calm Calm - N/A   Mostly Cloudy
11:55 AM 39.0 °F - 33.1 °F 79% 30.09 in 8.0 mi Calm Calm - N/A   Scattered Clouds
12:55 PM 42.1 °F 38.4 °F 33.1 °F 70% 30.08 in 10.0 mi WNW 5.8 mph - N/A   Clear
1:55 PM 46.0 °F 43.1 °F 34.0 °F 63% 30.07 in 10.0 mi West 5.8 mph - N/A   Clear
2:55 PM 46.9 °F - 33.1 °F 59% 30.06 in 10.0 mi Calm Calm - N/A   Clear
3:55 PM 48.0 °F - 33.1 °F 56% 30.05 in 10.0 mi Calm Calm - N/A   Clear
4:55 PM 46.0 °F 44.8 °F 33.1 °F 61% 30.07 in 10.0 mi SSW 3.5 mph - N/A   Clear
5:55 PM 41.0 °F 38.0 °F 32.0 °F 70% 30.09 in 10.0 mi South 4.6 mph - N/A   Clear
6:55 PM 37.9 °F - 32.0 °F 79% 30.10 in 10.0 mi Calm Calm - N/A   Clear
7:55 PM 39.9 °F 34.5 °F 33.1 °F 77% 30.11 in 10.0 mi South 8.1 mph - N/A   Clear
8:55 PM 39.9 °F 35.1 °F 33.1 °F 77% 30.13 in 10.0 mi SSW 6.9 mph - N/A   Clear
9:55 PM 39.0 °F 35.7 °F 32.0 °F 76% 30.14 in 10.0 mi SSW 4.6 mph - N/A   Clear
10:55 PM 39.9 °F 37.8 °F 32.0 °F 73% 30.15 in 10.0 mi SW 3.5 mph - N/A   Clear
11:55 PM 37.9 °F - 30.9 °F 76% 30.15 in 10.0 mi Calm Calm - N/A   Clear